User: anonymous   Login
Location: Chiroubles
(46.1812°N, 4.6660°E)
Time: 20:36:06
(UTC+00:00)
Language:

IRIDIUM 106 - Orbit

View from above orbital plane
View from above orbital plane
View from above satellite
View from above satellite

Ground track
Ground track

The orbit data is extracted from the following two-line orbital elements,

1 41917U 17003A   20304.22656598 +.00000084 +00000-0 +22938-4 0  9995
2 41917 086.4016 227.6159 0002055 094.2314 265.9116 14.34218558198522
Epoch (UTC): 30 October 2020 05:26:15
Eccentricity: 0.0002055
inclination: 86.4016°
perigee height: 776 km
apogee height: 779 km
right ascension of ascending node: 227.6159°
argument of perigee: 94.2314°
revolutions per day: 14.34218558
mean anomaly at epoch: 265.9116°
orbit number at epoch: 19852

The dashed part of the orbit path shows where the satellite is in the earth's shadow,  

DLR